Location: Silverdale
(47.6506°N, 122.6941°W)
Time: 03:40:22
(UTC+00:00)

Altair - Pass Details

Date: 08 October 2022
Orbit: 1501 x 1682 km, 47.2° (Epoch: 04 December)

Event Time Altitude Azimuth Distance (km) Brightness Sun altitude
Rises 16:27:52 0° 285° (WNW) 4,846 9.5 19.2°
Reaches altitude 10° 16:30:58 10° 284° (WNW) 3,880 9.1 19.6°
Maximum altitude 16:40:52 70° 203° (SSW) 1,758 8.3 21.0°
Drops below altitude 10° 16:50:56 10° 123° (ESE) 3,941 11.7 22.3°
Sets 16:54:06 0° 121° (ESE) 4,925 11.6 22.8°
